Погода в Голицыне

Россия / Пензенская область     53°37′24″N   44°06′55″E
темп.,
°C
ветер,
м/с
пор.,
м/с
влажн.,
%
обл.,
%
осадки,
мм/ч
давл.,
гПа
погр.,
м
2 декабря, чт
чт200:00−2юз5107459 0.0 997731
03:00−2юз61188100 0.1 998815
06:00−2з6116791 0.3 10001101
09:00−3з696899 0.3 10031163
12:00−3з7962100 0.0 10051183
15:00−3зюз695942 0.0 1007892
18:00−3юз51160100 0.0 1008686
21:00−2ююз6136594 0.0 1008613
3 декабря, пт
пт300:00−2ююз71590100 0.2 1007650
03:00−1юз71595100 0.7 1006609
06:00+1юз71497100 0.3 1007571
09:00+1юз71495100 0.4 1008505
12:00+2юз61397100 0.0 1010591
15:00+2ююз61294100 0.0 1010484
18:00+2ю51298100 0.0 1011397
21:00+3ю71697100 0.0 1010471
4 декабря, сб
сб400:00+4ю81893100 0.0 1009547
03:00+4ююз91988100 0.0 1007677
06:00+3ююз101982100 0.0 1006655
09:00+3ююз81693100 1.7 1006984
12:00+1з4895100 1.2 1009483
15:00+1з4782100 1.3 1010429
18:00−1зюз4982100 0.0 1012346
21:00−1з498041 0.0 1013470
5 декабря, вс
вс500:00−2з488669 0.0 1015595
03:00−2зсз577384 0.0 1016756
06:00−3з487527 0.0 1017614
09:00−3зсз4779100 0.0 1019526
12:00−2сз3570100 0.0 1020544
15:00−2сз237142 0.0 1021312
18:00−3ссз11765 0.0 102213
21:00−3св1177100 0.0 102315
6 декабря, пн
пн600:00−3всв2276100 0.0 102447
03:00−3в2377100 0.0 102593
06:00−3в3577100 0.0 1025180
09:00−3в3676100 0.0 1027270
12:00−2вюв476690 0.0 1027373
15:00−1вюв496790 0.0 1027413
18:00−2вюв51071100 0.0 1028388
21:00−2юв6127193 0.0 1028507